Temperature
23 22 21 20 19 19 18 18 17 16 16 15 15 15 15 14 14 14 14 13 13 13 13 13 13 13 13 13 13 13 14 14 14 14 15 15 16 16 16 16 16 17 17
23 22 21 20 19 19 18 17 17 16 16 15 15 15 14 14 14 14 14 13 13 13 13 13 13 13 13 13 13 13 13 14 14 14 14 15 15 16 16 16 16 16 17
23 22 21 20 19 19 18 17 17 16 16 15 15 14 14 14 14 14 14 13 13 13 13 13 13 13 13 13 13 13 13 14 14 14 14 15 15 15 16 16 16 16 16
24 22 21 20 19 18 18 17 16 16 15 15 15 14 14 14 14 14 14 13 13 13 13 13 13 13 13 13 13 13 13 13 14 14 14 14 15 15 15 15 16 16 16
24 22 21 20 19 18 18 17 16 16 15 15 15 14 14 14 14 14 14 14 13 13 13 13 13 13 13 13 13 13 13 13 13 14 14 14 14 15 15 15 15 16 16
23 22 21 20 19 18 17 17 16 16 15 15 15 15 14 14 14 14 14 14 14 14 13 13 13 13 13 13 13 13 13 13 13 13 14 14 14 14 15 15 15 15 15
23 22 21 20 19 18 17 17 16 16 15 15 15 15 14 14 14 14 14 14 14 14 13 13 13 13 13 13 13 13 13 13 13 13 14 14 14 14 14 15 15 15 15
23 22 21 20 19 18 17 17 16 16 15 15 15 15 15 14 14 14 14 14 14 14 13 13 13 13 13 13 13 13 13 13 13 13 13 14 14 14 14 14 14 15 15
23 22 21 20 19 18 17 17 16 16 15 15 15 15 14 14 14 14 14 14 14 14 13 13 13 13 13 13 13 13 13 13 13 13 13 14 14 14 14 14 14 14 14
23 22 21 20 19 18 17 17 16 16 15 15 15 15 14 14 14 14 14 14 14 14 13 13 13 13 13 13 13 13 13 13 13 13 13 13 14 14 14 14 14 14 14
23 22 21 20 19 18 17 17 16 16 16 15 15 15 15 14 14 14 14 14 14 14 14 14 13 13 13 13 13 13 13 13 13 13 13 13 14 14 14 14 14 14 14
23 22 21 20 19 18 18 17 17 16 16 16 15 15 15 14 14 14 14 14 14 14 14 14 13 13 13 13 13 13 13 13 13 13 13 13 13 13 13 13 14 14 14
23 22 21 20 19 18 18 17 17 17 16 16 15 15 15 15 14 14 14 14 14 14 14 14 13 13 13 13 13 13 13 13 13 13 13 13 13 13 13 13 13 13 13
23 22 21 20 19 19 18 18 17 17 16 16 15 15 15 15 14 14 14 14 14 14 14 13 13 13 13 13 13 13 13 13 13 13 13 13 13 13 13 13 13 13 13
23 22 21 20 20 19 18 18 17 17 16 16 15 15 15 15 14 14 14 14 14 14 14 14 14 14 14 14 14 13 13 13 13 13 13 13 13 13 13 13 13 13 13
23 23 22 21 20 19 19 18 17 17 17 16 16 15 15 15 15 14 14 14 14 14 14 14 14 14 14 13 13 13 13 13 13 13 13 13 13 13 13 13 13 13 13
23 23 22 21 21 20 19 18 18 17 17 16 16 16 15 15 15 14 14 14 14 14 14 14 13 14 14 14 14 13 13 13 13 13 13 13 13 13 13 13 13 13 13
23 23 22 22 21 20 20 19 18 17 17 16 16 16 15 15 15 15 14 14 14 14 14 14 14 14 14 14 14 13 13 13 13 13 13 13 13 13 13 13 13 13 13
23 22 22 22 21 21 20 19 18 18 17 17 16 16 16 15 15 15 14 14 14 14 14 14 14 14 14 14 14 14 13 13 13 13 13 13 13 13 13 13 13 13 13
23 22 22 21 21 21 20 19 19 18 17 17 16 16 16 16 15 15 15 14 14 14 14 14 14 14 14 14 13 13 13 13 13 13 13 13 13 13 13 13 13 12 12
22 22 21 21 20 20 20 19 19 18 18 17 17 16 16 16 15 15 15 14 14 14 14 14 14 14 14 13 13 13 13 13 13 13 13 13 13 13 13 13 13 12 12
21 21 21 20 20 20 19 19 19 19 18 17 17 16 16 15 15 15 15 14 14 14 14 14 14 14 13 13 13 13 13 13 13 12 12 12 12 12 12 12 12 12 12
21 20 20 20 20 19 19 19 19 18 18 17 17 16 16 15 15 15 15 14 14 14 14 14 13 13 13 13 13 13 13 12 12 12 12 12 12 12 12 12 12 12 12
20 20 20 19 19 19 19 19 18 18 18 17 17 16 16 15 15 15 14 14 14 14 14 13 13 13 13 13 13 13 12 12 12 12 12 12 12 11 11 11 11 11 11
20 20 19 19 19 19 18 18 18 18 17 17 17 16 16 15 15 14 14 14 14 14 14 13 13 13 13 13 13 12 12 12 12 12 11 11 11 11 11 11 11 11 11
19 19 19 19 18 18 18 18 18 17 17 16 16 16 15 15 15 14 14 14 13 13 13 13 13 13 13 12 12 12 12 12 11 11 11 11 10 10 10 10 10 10 10
Wind_Speed
11 10 9 7 6 5 4 5 4 4 4 2 2 2 2 3 2 2 3 5 5 5 4 3 3 2 1 2 3 2 3 2 2 2 2 2 1 1 2 1 1 1 2
11 11 9 8 5 5 5 4 3 4 5 2 1 1 1 2 1 2 2 4 4 5 5 4 4 3 2 2 3 2 2 2 2 0 1 1 2 2 1 2 1 1 1
10 12 10 8 6 5 5 3 3 5 5 2 1 2 2 2 1 2 2 2 2 2 2 4 4 4 2 1 2 1 1 2 2 1 1 0 1 1 1 2 1 1 1
8 10 10 8 7 6 5 4 4 4 4 2 2 2 1 2 2 2 1 2 1 1 2 3 3 3 2 2 2 1 1 1 1 2 1 1 0 1 0 1 0 1 1
8 10 10 8 7 7 6 3 4 4 3 2 3 1 1 2 2 2 2 2 1 2 1 2 3 3 2 1 2 1 1 1 1 1 1 1 1 1 1 1 0 1 0
8 9 9 8 7 7 6 4 4 4 3 1 1 1 1 2 2 3 3 3 1 2 2 2 3 2 2 2 1 2 2 1 1 1 1 0 0 0 0 0 0 0 1
8 9 10 9 8 8 6 5 5 4 3 1 1 1 2 1 1 2 2 3 2 2 3 3 2 2 3 2 2 2 1 1 1 1 1 1 1 0 0 1 0 0 1
8 8 9 9 8 8 7 6 6 4 3 2 1 1 2 0 1 1 2 2 2 2 3 4 3 2 2 2 1 1 1 1 0 1 1 1 0 0 1 1 1 0 0
9 8 9 9 9 8 7 6 6 5 4 3 2 1 1 1 1 2 2 2 2 2 3 4 3 2 1 2 1 1 1 1 0 0 0 1 1 0 1 1 1 2 0
9 9 8 9 9 8 7 7 6 5 4 3 2 2 1 1 0 2 2 2 3 2 2 3 3 2 1 1 1 1 1 1 0 1 1 1 1 0 0 1 1 1 2
8 8 8 8 9 9 8 7 6 5 4 3 3 3 2 1 1 1 1 2 2 2 2 2 3 2 2 2 1 1 2 2 1 0 1 1 2 1 0 1 1 1 1
8 8 9 9 8 9 9 8 7 6 5 4 3 3 2 2 1 1 2 2 2 2 2 3 3 3 3 2 2 1 1 1 1 1 1 1 1 1 0 1 0 1 1
8 8 8 8 9 8 8 8 7 6 6 5 4 3 2 1 1 1 1 2 2 1 1 2 2 3 3 2 2 1 1 1 1 1 1 1 1 1 1 1 1 1 1
8 8 8 9 9 8 8 7 7 7 6 5 5 3 3 2 1 1 1 2 3 2 2 1 2 2 3 4 4 3 1 1 2 2 1 1 2 2 2 1 1 1 1
7 9 9 9 9 9 8 8 7 8 7 6 5 4 3 3 1 1 1 1 2 4 3 2 2 2 2 3 5 5 3 2 2 2 2 2 4 4 2 1 2 2 0
8 8 10 10 10 10 9 8 8 8 7 7 6 5 4 4 3 1 1 1 1 2 3 2 2 3 3 4 5 5 4 3 1 1 1 1 3 2 2 1 1 1 0
6 7 8 10 10 10 10 10 9 8 8 7 7 6 4 4 3 2 1 1 1 0 2 2 2 2 3 3 4 5 3 2 2 1 0 0 2 2 0 2 3 2 3
5 6 6 7 8 9 10 10 9 9 8 7 8 7 5 5 4 2 1 2 1 1 1 1 0 1 2 2 2 4 3 2 1 1 0 1 1 1 1 1 1 2 2
4 4 5 5 6 8 10 10 10 9 9 8 8 8 7 5 4 3 2 2 1 1 1 2 1 1 2 1 1 3 2 1 0 1 2 2 2 3 3 2 1 1 2
3 4 4 4 5 6 8 9 9 9 9 8 8 7 7 6 5 4 3 2 2 2 2 2 1 2 3 2 1 2 2 2 1 1 2 4 3 3 3 2 2 2 3
4 4 4 4 5 6 7 8 8 8 8 8 7 7 7 7 6 4 3 2 2 2 2 2 1 2 3 4 3 2 1 2 2 1 1 2 4 4 3 2 1 2 4
4 5 4 4 4 6 7 7 7 7 8 8 8 7 7 6 6 5 4 3 3 3 3 2 1 1 3 4 3 2 1 2 2 2 1 1 1 2 2 2 2 5 5
4 5 5 5 5 6 6 7 7 7 8 8 8 7 7 6 5 5 4 2 2 2 1 1 1 0 2 2 2 2 2 1 1 1 2 2 2 2 2 2 3 3 2
4 4 6 6 6 6 6 6 7 8 9 9 9 8 7 6 5 4 3 2 1 1 1 0 0 0 2 2 1 0 1 1 0 1 2 2 2 1 2 2 2 1 1
3 5 6 7 7 7 7 7 7 8 9 9 9 8 7 6 6 4 2 3 2 2 2 1 1 1 2 2 2 2 1 1 0 1 1 1 2 2 3 3 3 3 3
4 4 6 7 7 7 7 7 8 8 9 8 8 7 7 6 7 6 4 5 4 5 6 5 4 3 4 3 3 4 4 4 2 2 1 2 2 3 3 3 4 4 4
Wind_Direction
163 146 138 140 148 138 113 100 109 102 85 47 11 13 4 358 9 17 21 359 357 350 333 329 321 327 320 303 307 310 307 294 293 313 315 304 273 227 198 208 204 191 186
152 143 147 154 158 135 120 116 110 100 92 78 355 333 21 333 10 357 14 9 1 357 342 343 335 326 309 316 300 298 312 307 314 341 350 318 345 327 227 192 202 176 167
163 153 153 150 147 135 119 109 107 110 104 109 43 12 9 315 342 350 17 357 342 346 327 328 324 321 325 299 283 275 274 291 301 326 148 160 215 300 275 225 194 164 153
152 146 151 150 152 137 126 142 132 117 116 121 81 6 336 344 5 0 352 326 350 344 337 321 313 309 306 303 301 308 266 253 287 305 316 305 196 154 260 311 255 181 142
156 149 152 150 151 138 133 143 129 118 107 96 122 250 355 355 351 340 335 327 337 312 318 316 304 299 290 296 303 300 277 231 242 270 304 313 325 284 157 215 286 20 42
151 147 143 141 140 132 133 144 137 120 112 141 183 170 79 344 332 335 337 321 311 312 345 327 317 324 335 345 323 304 273 232 245 258 261 262 246 288 91 186 247 241 265
150 148 147 147 145 143 147 156 149 143 152 207 253 152 122 310 326 337 323 320 333 354 350 343 343 355 353 348 338 313 305 248 220 217 244 270 281 199 73 105 208 269 290
149 152 152 150 153 153 156 165 159 160 164 201 248 45 92 4 2 334 318 330 343 13 4 345 2 22 5 342 347 329 311 284 246 259 227 204 29 102 139 156 133 99 311
154 157 156 154 158 158 163 172 163 164 171 191 186 111 59 52 352 316 323 351 344 5 10 349 360 16 359 340 6 352 332 319 139 253 271 156 210 159 130 123 131 140 136
160 161 160 161 160 159 164 167 165 170 177 183 177 146 147 132 288 310 343 345 343 10 356 338 344 1 9 355 32 26 8 6 77 171 187 172 190 115 108 145 156 152 157
162 163 160 159 159 160 163 167 174 178 168 174 169 150 161 191 259 289 321 313 330 346 347 351 353 3 4 6 47 37 37 1 7 52 109 162 136 120 184 135 157 185 153
161 160 156 156 161 167 170 174 178 175 165 166 168 156 166 168 223 308 320 322 338 344 353 12 5 7 11 5 31 32 28 355 0 27 38 38 104 116 91 93 114 153 173
162 159 157 161 166 171 175 179 175 165 159 159 168 165 165 158 192 285 312 316 321 332 6 47 21 360 353 2 10 13 344 343 27 50 57 42 66 71 76 129 126 151 140
172 165 162 167 170 176 178 179 168 160 162 165 170 171 164 154 191 265 299 321 334 340 5 50 37 15 8 5 2 358 7 5 29 51 65 71 73 54 29 42 41 82 108
179 172 169 174 173 181 180 174 167 165 169 168 168 170 167 153 162 285 294 29 346 339 345 26 47 47 40 18 15 356 360 28 31 38 45 80 96 90 81 58 19 20 38
188 185 179 176 178 182 174 167 169 172 168 167 167 162 171 155 159 224 308 42 332 327 332 11 43 54 41 38 31 11 346 351 10 53 51 115 117 130 148 180 186 134 149
189 186 184 182 184 182 174 172 175 172 172 169 160 161 173 159 168 195 187 218 230 296 320 355 42 75 64 37 17 357 333 321 328 351 66 78 95 116 219 251 231 241 251
178 181 187 181 181 175 170 170 170 171 174 168 163 165 174 167 170 186 211 240 231 188 267 293 44 115 91 64 8 339 314 296 322 347 320 127 80 57 4 287 221 207 231
159 167 181 176 175 171 169 169 171 172 173 171 169 168 169 166 172 186 209 233 245 231 244 236 209 172 121 85 2 348 306 295 291 34 31 64 83 33 26 357 306 276 269
133 146 166 174 174 169 164 170 176 173 174 170 171 165 164 167 177 186 198 214 234 244 248 242 209 160 150 147 80 26 331 320 342 61 73 61 67 48 39 6 335 322 310
137 150 170 179 177 167 166 179 182 177 168 163 164 159 161 171 178 177 181 205 222 243 259 260 229 165 146 141 130 96 5 337 339 4 45 51 61 50 26 6 357 312 312
157 167 179 183 179 174 177 186 181 165 154 156 160 163 168 179 175 166 181 200 213 230 244 247 249 183 141 134 153 167 230 328 341 348 21 67 64 34 360 341 318 328 335
177 178 182 183 184 183 189 189 172 156 153 158 164 169 173 172 160 162 177 192 205 219 237 223 220 137 113 112 118 199 250 305 2 4 3 334 306 309 311 295 313 329 339
187 184 186 190 196 193 193 184 166 162 165 170 173 173 175 168 156 151 160 157 171 205 228 99 22 77 90 60 42 331 266 274 325 305 306 297 308 329 330 341 345 357 9
195 193 201 203 201 192 188 178 172 175 178 180 178 175 171 161 149 138 126 143 135 154 171 143 83 75 79 50 51 70 54 50 24 351 28 37 36 30 25 22 22 22 22
208 210 215 212 205 195 191 183 179 183 186 186 181 173 166 161 157 151 134 80 110 114 113 108 116 103 107 116 86 67 51 40 59 77 62 52 50 43 32 26 20 25 26
Height
1492 1495 1498 1501 1503 1504 1504 1504 1504 1504 1503 1503 1502 1502 1501 1500 1499 1498 1496 1495 1494 1493 1492 1491 1491 1490 1490 1489 1489 1489 1489 1489 1490 1490 1490 1491 1492 1494 1495 1497 1498 1500 1502
1490 1493 1496 1500 1502 1503 1503 1504 1503 1503 1502 1502 1502 1501 1501 1500 1499 1497 1496 1494 1493 1492 1491 1490 1489 1489 1489 1488 1488 1488 1488 1488 1489 1490 1490 1491 1492 1492 1494 1495 1497 1498 1500
1487 1491 1495 1498 1500 1501 1502 1503 1503 1502 1501 1501 1501 1500 1500 1499 1498 1497 1495 1494 1492 1491 1490 1489 1488 1487 1487 1487 1487 1487 1487 1488 1488 1489 1490 1491 1491 1491 1493 1494 1496 1497 1499
1486 1489 1493 1496 1499 1500 1500 1501 1502 1502 1501 1501 1500 1500 1499 1498 1498 1496 1495 1493 1492 1490 1489 1488 1487 1486 1486 1486 1486 1486 1486 1487 1487 1488 1489 1490 1491 1491 1492 1494 1495 1496 1497
1485 1488 1491 1494 1497 1498 1499 1500 1500 1501 1500 1500 1499 1499 1498 1498 1497 1496 1494 1493 1492 1490 1489 1487 1486 1485 1485 1485 1485 1485 1485 1486 1486 1487 1488 1489 1490 1490 1491 1492 1494 1495 1496
1483 1487 1490 1493 1495 1497 1498 1499 1499 1499 1499 1499 1499 1498 1498 1497 1496 1495 1494 1493 1492 1490 1489 1487 1486 1485 1484 1484 1484 1484 1484 1485 1485 1486 1487 1488 1488 1489 1490 1491 1492 1493 1495
1482 1485 1488 1491 1493 1495 1496 1497 1498 1498 1498 1498 1498 1498 1497 1496 1496 1495 1494 1493 1492 1490 1489 1487 1486 1484 1483 1483 1483 1483 1483 1484 1484 1485 1485 1486 1487 1488 1489 1490 1491 1492 1493
1481 1484 1486 1488 1491 1493 1494 1495 1496 1497 1497 1497 1497 1497 1496 1496 1495 1494 1494 1493 1492 1490 1488 1487 1486 1484 1483 1482 1482 1482 1482 1483 1484 1484 1484 1485 1486 1487 1488 1490 1490 1491 1492
1479 1482 1485 1487 1489 1491 1492 1494 1494 1495 1496 1496 1496 1496 1495 1495 1494 1494 1494 1493 1492 1490 1489 1487 1486 1484 1483 1482 1481 1481 1482 1482 1483 1483 1484 1484 1485 1486 1487 1488 1489 1491 1491
1477 1480 1483 1485 1487 1488 1490 1492 1493 1494 1494 1495 1495 1495 1494 1494 1494 1494 1493 1492 1492 1490 1489 1487 1486 1485 1483 1482 1482 1481 1482 1482 1482 1483 1483 1484 1485 1485 1486 1487 1488 1490 1491
1475 1478 1480 1483 1485 1486 1488 1490 1491 1492 1493 1493 1494 1494 1493 1493 1493 1493 1493 1492 1491 1490 1489 1488 1486 1485 1484 1483 1482 1482 1482 1482 1482 1482 1483 1483 1484 1485 1485 1486 1487 1488 1490
1473 1475 1478 1480 1482 1484 1486 1488 1489 1490 1491 1492 1492 1493 1493 1492 1492 1492 1492 1492 1491 1490 1489 1488 1486 1485 1484 1483 1483 1482 1482 1482 1482 1482 1483 1483 1484 1484 1485 1486 1486 1487 1488
1471 1473 1475 1478 1480 1482 1484 1486 1487 1488 1489 1490 1491 1491 1491 1491 1491 1491 1491 1491 1490 1490 1489 1488 1486 1485 1484 1484 1483 1483 1482 1482 1482 1482 1482 1482 1483 1483 1484 1484 1485 1486 1487
1468 1470 1472 1475 1477 1480 1482 1484 1485 1486 1487 1488 1489 1490 1490 1490 1490 1490 1490 1490 1490 1489 1489 1487 1486 1485 1484 1483 1483 1483 1482 1482 1482 1482 1482 1482 1482 1483 1483 1484 1484 1485 1486
1465 1467 1469 1472 1474 1477 1479 1481 1483 1484 1485 1486 1487 1488 1489 1489 1489 1489 1489 1489 1488 1488 1488 1487 1486 1484 1483 1483 1483 1482 1482 1482 1482 1482 1482 1482 1482 1482 1483 1483 1484 1484 1485
1462 1464 1466 1469 1471 1473 1476 1478 1480 1482 1483 1484 1485 1486 1487 1487 1488 1488 1488 1488 1487 1487 1487 1486 1485 1484 1483 1483 1482 1482 1482 1482 1481 1481 1481 1481 1481 1482 1482 1482 1483 1483 1484
1459 1461 1463 1465 1468 1470 1472 1474 1477 1479 1481 1482 1483 1484 1485 1486 1486 1486 1487 1486 1486 1486 1486 1485 1485 1484 1483 1482 1482 1481 1481 1481 1481 1481 1481 1481 1481 1481 1481 1481 1482 1482 1482
1456 1458 1461 1463 1465 1467 1469 1471 1474 1476 1478 1480 1481 1482 1483 1484 1484 1485 1485 1485 1485 1485 1485 1484 1484 1483 1483 1482 1481 1481 1480 1480 1480 1480 1480 1480 1480 1480 1480 1480 1480 1481 1481
1454 1456 1458 1460 1462 1464 1466 1469 1471 1473 1475 1477 1478 1479 1480 1481 1482 1482 1483 1483 1484 1484 1484 1484 1483 1483 1482 1482 1481 1480 1480 1480 1480 1480 1480 1480 1479 1479 1479 1479 1479 1480 1480
1452 1453 1455 1457 1459 1461 1463 1466 1468 1470 1471 1473 1475 1476 1478 1479 1479 1480 1481 1481 1482 1482 1482 1482 1482 1482 1481 1481 1480 1480 1479 1479 1479 1479 1479 1479 1479 1478 1478 1478 1478 1478 1478
1450 1451 1453 1455 1456 1458 1460 1462 1465 1466 1468 1470 1472 1473 1475 1476 1477 1478 1479 1479 1480 1480 1480 1481 1481 1481 1480 1480 1479 1479 1478 1478 1478 1478 1477 1477 1477 1477 1477 1477 1477 1476 1476
1448 1449 1450 1452 1453 1455 1457 1459 1461 1463 1465 1467 1468 1470 1471 1473 1474 1475 1476 1477 1477 1478 1478 1479 1479 1479 1479 1478 1478 1477 1477 1477 1476 1476 1476 1476 1476 1475 1475 1475 1475 1475 1474
1446 1447 1448 1449 1450 1452 1454 1455 1457 1459 1461 1463 1465 1466 1468 1469 1471 1472 1473 1474 1474 1475 1476 1476 1477 1477 1477 1476 1476 1476 1475 1475 1475 1474 1474 1474 1474 1474 1474 1473 1473 1473 1472
1444 1444 1445 1446 1447 1448 1450 1451 1453 1455 1457 1459 1461 1462 1464 1466 1467 1468 1469 1470 1471 1472 1473 1473 1474 1474 1474 1474 1474 1473 1473 1473 1473 1473 1472 1473 1472 1472 1472 1472 1472 1471 1471
1441 1441 1442 1442 1443 1444 1446 1447 1449 1451 1453 1455 1457 1458 1460 1462 1463 1464 1466 1467 1468 1469 1470 1470 1471 1471 1472 1472 1472 1471 1471 1471 1471 1471 1471 1471 1471 1470 1470 1470 1470 1470 1470
1437 1437 1438 1438 1439 1440 1441 1442 1444 1446 1448 1450 1452 1454 1456 1458 1459 1461 1462 1463 1465 1466 1467 1467 1468 1468 1469 1469 1469 1469 1469 1469 1469 1469 1469 1469 1469 1469 1468 1468 1468 1468 1467